Location: Leuk
(46.3174°N, 7.6341°E)
Time: 14:57:05
(UTC+00:00)

Cosmos 1140 Rocket - Pass Details

Date: 09 March 2021
Orbit: 745 x 766 km, 74.1° (Epoch: 19 April)

Event Time Altitude Azimuth Distance (km) Brightness Sun altitude
Exits shadow 04:42:00 - 206° (SSW) 3,260 6.4 -13.2°
Rises 04:42:08 0° 206° (SSW) 3,209 6.4 -13.2°
Reaches altitude 10° 04:44:31 10° 209° (SSW) 2,285 5.6 -12.8°
Maximum altitude 04:49:41 71° 293° (WNW) 802 3.4 -11.9°
Drops below altitude 10° 04:54:52 10° 18° (NNE) 2,287 6.3 -11.0°
Sets 04:57:15 0° 21° (NNE) 3,212 7.1 -10.6°
